Regional Weather Roundup
Issued by NWS

Home | Current Version | Previous Version | Text Only | Print | Product List | Glossary On
Versions: 1 2 3 4 5 6 7 8 9 10 11 12 13 14 15 16 17 18 19 20 21 22 23 24 25 26 27 28 29 30 31 32 33 34 35 36 37 38 39 40 41 42 43 44 45 46 47 48 49 50
000
ASUS43 KMKX 260300
RWRWI

WISCONSIN REGIONAL WEATHER ROUNDUP
NATIONAL WEATHER SERVICE MILWAUKEE/SULLIVAN WI
1000 PM CDT SAT MAR 25 2017

NOTE: "FAIR" INDICATES FEW OR NO CLOUDS BELOW 12,000 FEET WITH NO
SIGNIFICANT WEATHER AND/OR OBSTRUCTIONS TO VISIBILITY.

WIZ001-002-006>008-014>016-023>028-260400-
NORTHWEST WISCONSIN

CITY           SKY/WX    TMP DP  RH WIND       PRES   REMARKS
SUPERIOR ARPT  CLOUDY    33  31  94 E15       30.17F WCI  23
ASHLAND        CLOUDY    33  30  88 NE12      30.16F WCI  24
HAYWARD        CLOUDY    37  29  72 NE8       30.10F WCI  31
SIREN          CLOUDY    38  30  72 NE8       30.09S WCI  33
CUMBERLAND     CLOUDY    36  32  87 E9        30.08S WCI  29
RICE LAKE      CLOUDY    38  35  89 CALM      30.09F
CHETEK         CLOUDY    37  35  94 E5        30.08F WCI  33
LADYSMITH      CLOUDY    37  35  92 E8        30.11S WCI  31
EAU CLAIRE     NOT AVBL
MENOMONIE      CLOUDY    38  35  86 E13G18    30.07F WCI  31
NEW RICHMOND   CLOUDY    38  33  82 E8        30.07S WCI  32
OSCEOLA        CLOUDY    40  33  75 E8        30.10S
$$

WIZ003>005-009-010-017-018-260400-
NORTH CENTRAL WISCONSIN

CITY           SKY/WX    TMP DP  RH WIND       PRES   REMARKS
MANITOWISH WTR CLOUDY    35  33  94 SE9       30.11F WCI  27
ARBOR VITAE    CLOUDY    37  34  89 E8G17     30.11F WCI  30
WOODRUFF       CLOUDY    37  34  89 E8G17     30.11F WCI  30
RHINELANDER    LGT RAIN  34  32  92 E15       30.11F WCI  24
EAGLE RIVER    MIX PCPN  33  29  88 E9        30.13S WCI  25
LAND O LAKES   CLOUDY    34  31  86 SE7       30.15F WCI  28
PHILLIPS       CLOUDY    34  34  97 E5        30.09F WCI  30
TOMAHAWK       CLOUDY    32  31  95 E6        30.12F FOG     WCI  26
MEDFORD        CLOUDY    32  31  96 E12G18    30.07F WCI  23
MERRILL        MIX PCPN  33  32  99 E7        30.12S WCI  26
$$

WIZ029-030-035-036-043>047-260400-
CENTRAL WISCONSIN

CITY           SKY/WX    TMP DP  RH WIND       PRES   REMARKS
WAUSAU         LGT RAIN  33  32  96 E10       30.09F WCI  25
MOSINEE        CLOUDY    32  32 100 E14       30.10F WCI  22
MARSHFIELD     CLOUDY    33  31  92 E15       30.06F WCI  23
STEVENS POINT  CLOUDY    32  32 100 E15       30.10F WCI  21
WAUPACA        LGT RAIN  36  34  92 NE8       30.12F WCI  29
WAUTOMA        MIX PCPN  35  34  96 NE13      30.08F FOG     WCI  26
WISC RAPIDS    CLOUDY    34  33  96 E12       30.09F WCI  25
CAMP DOUGLAS   MIX PCPN  36  36 100 E10       30.05F WCI  28
$$

WIZ011>013-019>022-031-037>040-048>050-260400-
NORTHEAST WISCONSIN

CITY           SKY/WX    TMP DP  RH WIND       PRES   REMARKS
ANTIGO         MIX PCPN  31  31  99 E14G22    30.12F WCI  21
SHAWANO        LGT RAIN  35  33  92 NE12      30.15F WCI  26
OCONTO         CLOUDY    33  32  96 NE9       30.16F WCI  25
STURGEON BAY   LGT RAIN  35  33  92 NE13G20   30.15F WCI  26
GREEN BAY      CLOUDY    35  35 100 NE13      30.13F WCI  26
MANITOWOC      NOT AVBL
APPLETON       CLOUDY    34  34 100 NE14      30.09F FOG     WCI  24
CLINTONVILLE   DRIZZLE   34  32  93 NE9G17    30.13F WCI  26
OSHKOSH        CLOUDY    37  35  92 NE12      30.08F WCI  29
$$

WIZ032>034-041-042-053>061-260400-
SOUTHWEST WISCONSIN

CITY           SKY/WX    TMP DP  RH WIND       PRES   REMARKS
LA CROSSE      CLOUDY    38  35  89 E13       30.03F WCI  30
SPARTA         CLOUDY    35  35  98 E10G17    30.06F WCI  28
VIROQUA        CLOUDY    36  36 100 E15G21    30.00S WCI  26
BOSCOBEL       CLOUDY    40  38  93 E8G18     30.01S WCI  34
PRAIRIE DU CHI CLOUDY    39  38  97 NE8       30.00S WCI  33
PLATTEVILLE    CLOUDY    40  40 100 E14       29.97S WCI  32
$$

WIZ056-057-062-063-064-067-068-260400-
SOUTH CENTRAL WISCONSIN

CITY           SKY/WX    TMP DP  RH WIND       PRES   REMARKS
REEDSBURG      CLOUDY    36  36 100 E13G18    30.04S FOG     WCI  27
BARABOO/DELLS  CLOUDY    36  36  98 NE9G17    30.04S FOG     WCI  29
LONE ROCK      CLOUDY    39  37  92 E13       30.03S FOG     WCI  31
MINERAL POINT  CLOUDY    39  39 100 E14G22    29.97F FOG     WCI  31
MADISON        DRIZZLE   39  37  92 NE9       30.01F WCI  33
MIDDLETON      CLOUDY    40  39  97 NE12      30.02F WCI  33
WATERTOWN      CLOUDY    39  39 100 E12G18    30.02F WCI  31
MONROE         DRIZZLE   37  37 100 NE15      29.97F WCI  28
JANESVILLE     CLOUDY    41  41 100 E13       29.99F
$$

WIZ051-052-058>065-066-070>072-260400-
SOUTHEAST WISCONSIN

CITY           SKY/WX    TMP DP  RH WIND       PRES   REMARKS
MILWAUKEE      CLOUDY    39  37  92 NE14      30.05F VSB 1   WCI  31
WAUKESHA       LGT RAIN  36  36 100 E13G18    30.04F WCI  27
MILWAUKEE/TIMM DRIZZLE   36  34  93 NE10      30.07F WCI  28
RACINE         CLOUDY    39  37  92 NE13      30.05F FOG     WCI  31
KENOSHA        CLOUDY    41  40  96 E10       30.02F FOG
FOND DU LAC    LGT RAIN  38  35  89 NE10      30.07F WCI  31
SHEBOYGAN      LGT RAIN  37  35  92 NE13      30.09F WCI  29
WEST BEND      RAIN      36  36 100 E10       30.06F WCI  28
JUNEAU         CLOUDY    37  37  97 E10       30.05F WCI  30
$$

LSZ147-162-260400-
LAKE SUPERIOR

STATION/POSITION TIME  TEMP    WIND        PRES    WAVE
                       AIR SEA DIR/SP/G            HT/PER
                 (UTC) (F)     (DEG/KT/KT) (MB)    (FT/S)
DEVILS ISLAND    0200   33      70/ 19/ 23 1023.3F
PORT WING        0240   34      60/  5/  8 1021.7F
SAXON HARBOR     0240   34      50/ 14/ 16 1021.0F
$$

LMZ867-665-643>646-260400-
LAKE MICHIGAN

STATION/POSITION TIME  TEMP    WIND        PRES    WAVE
                       AIR SEA DIR/SP/G            HT/PER
                 (UTC) (F)     (DEG/KT/KT) (MB)    (FT/S)
CHAMBERS ISLAND  0240   33      30/ 14/ 19 1021.7F
NORTHPORT PIER   0240   33      70/ 18/ 21 1022.7F
SISTER BAY       0206   34      90/  8/ 13   N/A
KEWAUNEE LAKESHO 0230   36      50/ 11/ 16 1019.8F
SHEBOYGAN LAKESH 0200   37      30/ 16/ 17 1019.7F
PORT WASHINGTON  0230   38      40/ 15/ 17 1019.6F
MILWAUKEE LAKESH 0230   38      20/ 15/ 18   N/A
KENOSHA   LAKESH 0200   39      20/ 17/ 20 1016.9
$$

TC  - TEMPERATURE IN CELSIUS
VSB - VISIBILITY IN STATUTE MILES
WCI - WIND CHILL INDEX
HX  - HEAT INDEX





USA.gov is the U.S. government's official web portal to all federal, state and local government web resources and services.